Kezdőlap
METAR-TAF:

METAR-TAF

Repülőterek :

Chiredzi, Zimbabwe

földrajzi szélesség: 21-01S, földrajzi hosszúság: 031-35E, magasság: 429 m

Jelenlegi meteorológiai megfigyelések

A jelentés 21 órával és 33 perccel ezelõtt készült, 06:00 UTC
Szélcsend
Hőmérséklet 15°C
Páratartalom 88%
Légköri nyomás 1023 hPa
Látótávolság: 7000 m

METAR: FVCZ 220600Z 00000KT 7000 15/13 Q1023

Idő: 05:33 (03:33 UTC)


TAF: hiányzik

Meteorológiai megfigyelések és előrejelzések több, mint 4000 repülőtéren (METAR és TAF jelentéseket).

A térképen piros és sárga pontok jelzik az elérhető meteorológiai állomásokat.

Mozgassa az egeret a pont fölött, hogy megjelenjen az állomás neve.

Azután kattintson az időjárási megfigyelések és előrejelzések megtekintéséhez.

A térkép megváltoztatása: kattintson a fekete keresztel jelölt zöld gombra ráközelítéshez, a vonallal jelölt zöld gombra távolításhoz, vagy a zöld nyilakra a szomszédos térképek eléréséhez.


METAR-TAF: